Location: The Jewett Observatory
(46.7288°N, 117.1525°W)
Time: 12:20:31
(UTC-07:00)

Amateur Radio Satellites - All Passes

Search period start: 21 September 2017 11:50
Search period end: 22 September 2017 11:50
Location: The Jewett Observatory, 46.7288°N, 117.1525°W

Satellite Date Start Highest point End Downlink Frequencies (MHz)
Time Altitude Azimuth
Max Valier Satellite 21 Sep 11:51:13 11:53:50 18° 295° (WNW) 11:56:26 145.860
YUBILEINY 21 Sep 11:56:57 12:04:44 38° 85° (E) 12:12:30 435.215
NANOSAT C BR1 21 Sep 11:57:26 12:01:37 84° 259° (WSW) 12:05:51 145.865
O/OREOS (USA 219) 21 Sep 12:03:50 12:08:12 41° 58° (ENE) 12:12:33 437.305
SPROUT 21 Sep 12:04:42 12:06:36 13° 89° (E) 12:08:31 437.525
Oscar 19 21 Sep 12:07:02 12:10:53 21° 60° (ENE) 12:14:46 437.125/150
AO-7 21 Sep 12:09:47 12:11:56 11° 31° (NNE) 12:14:06 .
DUCHIFAT 1 21 Sep 12:27:36 12:31:37 45° 261° (W) 12:35:40 145.980
LO-87 21 Sep 12:28:00 12:31:33 54° 287° (WNW) 12:35:04 145.935 - 145.965
POLYITAN 1 21 Sep 12:37:55 12:41:36 29° 265° (W) 12:45:19 437.675
ESTCUBE 1 21 Sep 12:40:14 12:44:45 77° 286° (WNW) 12:49:14 437.505/2401.250
EO-79 21 Sep 12:43:10 12:46:41 26° 266° (W) 12:50:14 145.935-145.965
QB50P2 21 Sep 12:56:39 12:59:32 18° 269° (W) 13:02:27 145.880/145.840
DX 1 21 Sep 13:04:26 13:04:35 10° 87° (E) 13:04:45 434.975-435.025
Gurwin Techsat 1B 21 Sep 13:09:44 13:14:48 48° 69° (ENE) 13:19:55 435.225
BUGSAT 1 21 Sep 13:13:01 13:16:56 51° 260° (W) 13:20:55 437.445
VELOX 1 21 Sep 13:20:16 13:24:36 54° 101° (E) 13:28:53 145.980
M-CUBED/EXP-1 PRIME 21 Sep 13:21:55 13:24:54 18° 261° (W) 13:27:47 437.505
SPROUT 21 Sep 13:38:42 13:42:58 70° 287° (WNW) 13:47:14 437.525
O/OREOS (USA 219) 21 Sep 13:43:39 13:47:24 25° 257° (WSW) 13:51:09 437.305
Oscar 19 21 Sep 13:44:37 13:49:46 62° 258° (WSW) 13:54:57 437.125/150
RS-15 21 Sep 13:50:32 14:02:38 64° 44° (NE) 14:14:02 29.354- 29.394
YUBILEINY 21 Sep 13:52:48 14:01:15 53° 286° (WNW) 14:09:45 435.215
AO-7 21 Sep 13:54:56 14:02:20 37° 55° (NE) 14:09:43 .
NO-84 21 Sep 13:57:02 14:00:30 34° 137° (SE) 14:03:43 435.350 FM
SO-50 21 Sep 13:57:58 14:00:50 17° 111° (ESE) 14:03:44 436.795
PCSat 21 Sep 14:08:48 14:11:28 14° 103° (ESE) 14:14:09 145.827
ESTCUBE 1 21 Sep 14:19:47 14:20:46 11° 304° (NW) 14:21:45 437.505/2401.250
50 SAT 21 Sep 14:22:40 14:25:59 78° 285° (WNW) 14:29:16 437.505
UKube-1 21 Sep 14:35:16 14:39:33 59° 102° (ESE) 14:43:47 .
DX 1 21 Sep 14:37:02 14:41:24 87° 282° (WNW) 14:45:43 434.975-435.025
ITAMSAT 1 21 Sep 14:44:30 14:49:15 38° 66° (ENE) 14:54:02 435.822/435.867
Gurwin Techsat 1B 21 Sep 14:50:36 14:54:58 26° 267° (W) 14:59:23 435.225
VELOX 1 21 Sep 14:57:40 15:00:39 18° 299° (WNW) 15:03:38 145.980
MOZHAYETS 4 21 Sep 15:22:44 15:26:36 25° 93° (E) 15:30:26
ITUPSAT 1 21 Sep 15:29:03 15:33:12 28° 95° (E) 15:37:21 437.325
NO-84 21 Sep 15:34:24 15:37:52 42° 334° (NNW) 15:41:04 435.350 FM
SO-50 21 Sep 15:36:20 15:40:48 68° 310° (NW) 15:45:19 436.795
AO-7 21 Sep 15:46:30 15:54:44 62° 256° (WSW) 16:03:00 .
PCSat 21 Sep 15:48:36 15:54:02 86° 124° (SE) 15:59:30 145.827
DOVE 4 21 Sep 15:56:08 15:58:48 16° 62° (ENE) 16:01:25 437.250
YUBILEINY 21 Sep 15:57:02 16:00:33 13° 312° (NW) 16:04:05 435.215
RS-15 21 Sep 16:03:39 16:14:47 48° 249° (WSW) 16:25:21 29.354- 29.394
BEESAT 21 Sep 16:06:59 16:11:46 65° 102° (ESE) 16:16:32 436.000
UKube-1 21 Sep 16:12:23 16:15:07 17° 299° (WNW) 16:17:51 .
DX 1 21 Sep 16:15:29 16:16:52 11° 303° (WNW) 16:18:16 434.975-435.025
CUTE-I 21 Sep 16:19:16 16:20:59 12° 52° (NE) 16:22:42 437.470
ITAMSAT 1 21 Sep 16:24:13 16:28:46 31° 264° (W) 16:33:22 435.822/435.867
KAITUO 1B 21 Sep 16:53:06 16:54:34 12° 61° (ENE) 16:56:01 145.475/437.950
MOZHAYETS 4 21 Sep 16:59:32 17:03:52 39° 291° (WNW) 17:08:09
ITUPSAT 1 21 Sep 17:06:39 17:11:06 38° 293° (WNW) 17:15:31 437.325
NO-84 21 Sep 17:13:19 17:15:51 19° 354° (N) 17:18:15 435.350 FM
XW-2D 21 Sep 17:14:53 17:18:08 26° 67° (ENE) 17:21:24 145.860 - 145.880
SO-50 21 Sep 17:19:16 17:22:06 16° 331° (NNW) 17:24:56 436.795
CUBESAT XI-V 21 Sep 17:19:19 17:23:59 80° 102° (ESE) 17:28:36 437.345
XW-2B 21 Sep 17:26:52 17:30:21 34° 70° (ENE) 17:33:52 145.730 - 145.750
XW-2F 21 Sep 17:28:46 17:32:14 34° 70° (ENE) 17:35:44 145.980 - 146.000
DOVE 4 21 Sep 17:31:42 17:36:07 60° 259° (W) 17:40:21 437.250
PCSat 21 Sep 17:33:56 17:38:09 22° 323° (NW) 17:42:22 145.827
CUTE 1.7 + AOD 2 21 Sep 17:34:27 17:35:47 11° 58° (ENE) 17:37:07 437.475
KKS-1 21 Sep 17:36:07 17:40:21 42° 99° (E) 17:44:34 437.445
HO-68 21 Sep 17:37:20 17:43:15 29° 56° (NE) 17:49:11 435.675
BEESAT 21 Sep 17:45:49 17:49:03 18° 300° (WNW) 17:52:17 436.000
AO-7 21 Sep 17:46:13 17:49:13 12° 277° (W) 17:52:14 .
XW-2C 21 Sep 17:47:43 17:51:31 60° 74° (ENE) 17:55:20 145.795 - 145.815
CUTE-I 21 Sep 17:54:47 18:00:02 66° 72° (ENE) 18:05:19 437.470
LilacSat-2 21 Sep 17:57:10 18:01:02 82° 76° (ENE) 18:04:56 437.200
NUDT-PHONESAT 21 Sep 17:59:29 18:03:10 58° 73° (ENE) 18:06:53 437.300
STARS 21 Sep 18:07:02 18:11:08 37° 98° (E) 18:15:13 437.465
KAITUO 1B 21 Sep 18:24:14 18:28:01 68° 258° (WSW) 18:31:50 145.475/437.950
SEEDS 21 Sep 18:43:32 18:47:20 33° 69° (ENE) 18:51:10 437.485
AO-73 21 Sep 18:43:39 18:44:18 10° 56° (NE) 18:44:56 145.935
ZACube-1 21 Sep 18:44:07 18:45:40 12° 57° (ENE) 18:47:15 437.345
XW-2D 21 Sep 18:48:58 18:52:15 26° 265° (W) 18:55:33 145.860 - 145.880
XW-2A 21 Sep 18:49:50 18:52:35 23° 68° (ENE) 18:55:21 145.665 - 145.685
NO-84 21 Sep 18:51:23 18:54:02 24° 15° (NNE) 18:56:32 435.350 FM
CUBESAT XI-V 21 Sep 18:58:16 19:00:44 14° 301° (WNW) 19:03:10 437.345
XW-2B 21 Sep 19:01:41 19:04:37 21° 267° (W) 19:07:34 145.730 - 145.750
XW-2F 21 Sep 19:03:32 19:06:26 20° 267° (W) 19:09:22 145.980 - 146.000
CUTE 1.7 + AOD 2 21 Sep 19:06:37 19:10:55 89° 78° (ENE) 19:15:15 437.475
CUBEBUG 2 21 Sep 19:12:53 19:17:02 58° 73° (ENE) 19:21:21 437.445
AAUSAT CUBESAT 2 21 Sep 19:13:09 19:16:49 31° 68° (ENE) 19:20:31 437.432
KKS-1 21 Sep 19:13:11 19:16:40 23° 297° (WNW) 19:20:09 437.445
HO-68 21 Sep 19:23:21 19:30:27 68° 256° (WSW) 19:37:37 435.675
XW-2C 21 Sep 19:24:31 19:26:05 12° 271° (W) 19:27:39 145.795 - 145.815
UWE-3 21 Sep 19:24:31 19:28:37 46° 71° (ENE) 19:32:52 435.000/436.395/437.385
STRAND 1 21 Sep 19:32:30 19:36:50 27° 94° (E) 19:41:09 437.568
NUDT-PHONESAT 21 Sep 19:35:59 19:37:25 12° 271° (W) 19:38:50 437.300
CUTE-I 21 Sep 19:36:52 19:40:34 19° 270° (W) 19:44:15 437.470
STARS 21 Sep 19:43:42 19:47:18 25° 295° (WNW) 19:50:54 437.465
AO-73 21 Sep 20:15:22 20:19:41 77° 75° (ENE) 20:24:09 145.935
ZACube-1 21 Sep 20:16:52 20:21:12 89° 67° (ENE) 20:25:40 437.345
Oscar 11 21 Sep 20:17:07 20:21:23 59° 73° (ENE) 20:25:41 .
BEESAT 3 21 Sep 20:18:49 20:22:37 42° 120° (ESE) 20:26:28 437.485
SEEDS 21 Sep 20:19:30 20:23:03 26° 266° (W) 20:26:37 437.485
XW-2A 21 Sep 20:22:24 20:25:14 24° 265° (W) 20:28:05 145.665 - 145.685
BEESAT 2 21 Sep 20:22:35 20:25:04 16° 111° (ESE) 20:27:33 435.950
NO-84 21 Sep 20:28:39 20:31:41 77° 216° (SW) 20:34:33 435.350 FM
EO-88 21 Sep 20:32:35 20:33:38 11° 61° (ENE) 20:34:42 145.990 - 145.960
SO-50 21 Sep 20:45:26 20:47:11 12° 21° (NNE) 20:48:55 436.795
Tancredo 1 21 Sep 20:47:14 20:49:50 44° 147° (SSE) 20:52:27 437.200
AAUSAT CUBESAT 2 21 Sep 20:48:46 20:52:17 26° 266° (W) 20:55:49 437.432
CUBEBUG 2 21 Sep 20:51:39 20:54:06 15° 271° (W) 20:56:35 437.445
Max Valier Satellite 21 Sep 20:58:14 21:01:23 26° 68° (ENE) 21:04:33 145.860
DELFI C3 21 Sep 21:01:30 21:05:12 40° 71° (ENE) 21:08:55 145.870
nSIGHT-1 21 Sep 21:01:35 21:03:27 15° 135° (SE) 21:05:20 .
UWE-3 21 Sep 21:02:16 21:05:21 19° 269° (W) 21:08:31 435.000/436.395/437.385
AO-85 21 Sep 21:02:48 21:06:27 40° 120° (ESE) 21:10:11 145.980
STRAND 1 21 Sep 21:11:19 21:16:11 44° 292° (WNW) 21:21:02 437.568
HO-68 21 Sep 21:16:40 21:19:31 13° 276° (W) 21:22:23 435.675
UNISAT 6 21 Sep 21:31:06 21:33:36 14° 89° (E) 21:36:05 437.425
FO-29 21 Sep 21:52:20 21:57:39 59° 101° (ESE) 22:03:29 435.910
ISS 21 Sep 21:52:56 21:55:59 35° 143° (SE) 21:59:02 437.550
TIGRISAT 21 Sep 21:54:32 21:58:09 22° 92° (E) 22:01:48 435.000
AO-73 21 Sep 21:54:56 21:56:31 12° 273° (W) 21:58:07 145.935
Oscar 11 21 Sep 21:55:19 21:57:54 15° 271° (W) 22:00:31 .
BEESAT 3 21 Sep 21:56:52 22:00:19 26° 319° (NW) 22:03:48 437.485
BEESAT 2 21 Sep 21:58:22 22:02:21 61° 310° (NW) 22:06:24 435.950
YUBILEINY 21 Sep 22:02:58 22:09:33 23° 59° (ENE) 22:16:06 435.215
EO-88 21 Sep 22:03:06 22:06:45 69° 259° (WSW) 22:10:27 145.990 - 145.960
ESTCUBE 1 21 Sep 22:07:17 22:10:17 18° 61° (ENE) 22:13:17 437.505/2401.250
Tancredo 1 21 Sep 22:21:52 22:24:26 36° 346° (NNW) 22:26:59 437.200
SO-50 21 Sep 22:24:36 22:28:54 38° 44° (NE) 22:33:13 436.795
Max Valier Satellite 21 Sep 22:32:06 22:35:10 24° 265° (W) 22:38:17 145.860
nSIGHT-1 21 Sep 22:36:07 22:39:21 84° 155° (SSE) 22:42:37 .
DELFI C3 21 Sep 22:37:20 22:40:07 18° 268° (W) 22:42:56 145.870
AO-85 21 Sep 22:43:40 22:46:58 26° 320° (NW) 22:50:22 145.980
PCSat 21 Sep 22:50:46 22:55:22 27° 41° (NE) 22:59:57 145.827
SPROUT 21 Sep 23:00:41 23:03:06 15° 60° (ENE) 23:05:32 437.525
PRISM 21 Sep 23:05:59 23:10:02 61° 102° (ESE) 23:14:02 437.425
UNISAT 6 21 Sep 23:06:08 23:10:47 73° 285° (WNW) 23:15:28 437.425
LO-87 21 Sep 23:06:10 23:09:42 88° 71° (ENE) 23:13:15 145.935 - 145.965
ISS 21 Sep 23:29:11 23:32:24 51° 342° (NNW) 23:35:38 437.550
TIGRISAT 21 Sep 23:30:35 23:35:02 46° 290° (WNW) 23:39:31 435.000
FO-29 21 Sep 23:38:21 23:42:27 23° 299° (WNW) 23:46:49 435.910
BEESAT 2 21 Sep 23:38:53 23:40:55 13° 331° (NNW) 23:42:57 435.950
NANOSAT C BR1 21 Sep 23:40:21 23:42:20 13° 89° (E) 23:44:18 145.865
ESTCUBE 1 21 Sep 23:42:09 23:46:38 61° 259° (W) 23:51:08 437.505/2401.250
Tancredo 1 21 Sep 23:56:58 23:59:24 28° 6° (N) 00:01:49 437.200
YUBILEINY 21 Sep 23:58:54 00:07:41 89° 85° (E) 00:16:28 435.215
DX 1 22 Sep 00:01:14 00:03:36 15° 59° (ENE) 00:05:59 434.975-435.025
SO-50 22 Sep 00:05:11 00:09:18 33° 243° (WSW) 00:13:28 436.795
DUCHIFAT 1 22 Sep 00:08:50 00:12:12 22° 93° (E) 00:15:34 145.980
nSIGHT-1 22 Sep 00:12:53 00:15:55 35° 352° (N) 00:18:58 .
POLYITAN 1 22 Sep 00:19:07 00:23:06 35° 97° (E) 00:27:03 437.675
VELOX 1 22 Sep 00:19:50 00:24:12 69° 74° (ENE) 00:28:35 145.980
EO-79 22 Sep 00:23:57 00:28:00 40° 98° (E) 00:32:01 145.935-145.965
AIST 2D 22 Sep 00:28:08 00:31:39 61° 286° (WNW) 00:35:07 435.315
PCSat 22 Sep 00:33:50 00:39:13 65° 242° (WSW) 00:44:34 145.827
SPROUT 22 Sep 00:34:18 00:38:30 65° 259° (W) 00:42:45 437.525
QB50P2 22 Sep 00:36:43 00:40:59 60° 101° (ESE) 00:45:12 145.880/145.840
PRISM 22 Sep 00:42:36 00:44:50 15° 299° (WNW) 00:47:04 437.425
UNISAT 6 22 Sep 00:45:40 00:46:40 11° 304° (NW) 00:47:40 437.425
BUGSAT 1 22 Sep 00:52:17 00:55:13 18° 92° (E) 00:58:10 437.445
50 SAT 22 Sep 00:54:47 00:58:00 51° 73° (ENE) 01:01:15 437.505
M-CUBED/EXP-1 PRIME 22 Sep 00:57:05 00:59:17 16° 98° (E) 01:01:27 437.505
ISS 22 Sep 01:06:16 01:09:18 33° 2° (N) 01:12:21 437.550
NANOSAT C BR1 22 Sep 01:14:14 01:18:30 68° 286° (WNW) 01:22:43 145.865
Gurwin Techsat 1B 22 Sep 01:24:19 01:27:15 15° 88° (E) 01:30:10 435.225
Tancredo 1 22 Sep 01:31:30 01:34:13 75° 24° (NNE) 01:36:55 437.200
UKube-1 22 Sep 01:32:01 01:36:18 72° 73° (ENE) 01:40:36 .
DX 1 22 Sep 01:34:56 01:39:15 71° 257° (WSW) 01:43:36 434.975-435.025
BEESAT 22 Sep 01:40:51 01:43:32 15° 58° (ENE) 01:46:14 436.000
DUCHIFAT 1 22 Sep 01:44:02 01:47:59 38° 291° (WNW) 01:51:55 145.980
nSIGHT-1 22 Sep 01:49:38 01:52:43 39° 12° (NNE) 01:55:50 .
Oscar 19 22 Sep 01:53:21 01:58:09 37° 97° (E) 02:02:54 437.125/150
POLYITAN 1 22 Sep 01:55:12 01:58:43 25° 295° (WNW) 02:02:14 437.675
YUBILEINY 22 Sep 01:57:16 02:03:16 21° 283° (WNW) 02:09:17 435.215
VELOX 1 22 Sep 01:58:57 02:01:07 13° 271° (W) 02:03:17 145.980
EO-79 22 Sep 02:00:11 02:03:32 23° 296° (WNW) 02:06:52 145.935-145.965
QB50P2 22 Sep 02:13:40 02:16:19 16° 299° (WNW) 02:18:57 145.880/145.840
O/OREOS (USA 219) 22 Sep 02:19:33 02:23:17 26° 104° (ESE) 02:27:02 437.305
BUGSAT 1 22 Sep 02:26:47 02:30:48 46° 289° (WNW) 02:34:50 437.445
MOZHAYETS 4 22 Sep 02:27:03 02:31:11 34° 67° (ENE) 02:35:22
50 SAT 22 Sep 02:30:26 02:30:49 10° 270° (W) 02:31:12 437.505
M-CUBED/EXP-1 PRIME 22 Sep 02:30:50 02:33:53 31° 297° (WNW) 02:36:50 437.505
ITUPSAT 1 22 Sep 02:38:13 02:42:46 45° 69° (ENE) 02:47:21 437.325
ISS 22 Sep 02:42:52 02:46:09 64° 22° (NNE) 02:49:25 437.550
CUBESAT XI-V 22 Sep 02:50:12 02:52:52 15° 59° (ENE) 02:55:32 437.345
BEESAT 3 22 Sep 02:56:20 02:58:22 13° 30° (NNE) 03:00:22 437.485
Gurwin Techsat 1B 22 Sep 03:02:30 03:07:51 82° 287° (WNW) 03:13:10 435.225
Tancredo 1 22 Sep 03:06:43 03:08:27 15° 222° (SW) 03:10:10 437.200
UKube-1 22 Sep 03:11:01 03:12:49 12° 271° (W) 03:14:37 .
BEESAT 22 Sep 03:15:55 03:20:41 80° 257° (WSW) 03:25:30 436.000
nSIGHT-1 22 Sep 03:25:58 03:29:11 61° 212° (SSW) 03:32:24 .
Oscar 19 22 Sep 03:32:49 03:37:24 33° 295° (WNW) 03:41:56 437.125/150
AO-7 22 Sep 03:44:51 03:52:30 39° 98° (E) 04:00:05 .
AO-85 22 Sep 03:50:42 03:53:38 18° 34° (NE) 03:56:42 145.980
O/OREOS (USA 219) 22 Sep 03:58:18 04:02:31 38° 303° (WNW) 04:06:47 437.305
MOZHAYETS 4 22 Sep 04:04:19 04:08:21 29° 265° (W) 04:12:25
ITUPSAT 1 22 Sep 04:17:00 04:20:47 23° 267° (W) 04:24:37 437.325
RS-15 22 Sep 04:19:34 04:28:54 27° 100° (E) 04:38:13 29.354- 29.394
ISS 22 Sep 04:19:39 04:22:26 25° 220° (SW) 04:25:11 437.550
CUBESAT XI-V 22 Sep 04:24:56 04:29:38 78° 258° (WSW) 04:34:22 437.345
BEESAT 3 22 Sep 04:32:43 04:36:43 64° 51° (NE) 04:40:37 437.485
ITAMSAT 1 22 Sep 04:33:08 04:38:21 73° 103° (ESE) 04:43:33 435.822/435.867
BEESAT 2 22 Sep 04:35:57 04:39:30 28° 41° (NE) 04:43:01 435.950
KKS-1 22 Sep 04:36:34 04:40:52 56° 71° (ENE) 04:45:13 437.445
Gurwin Techsat 1B 22 Sep 04:44:14 04:46:59 14° 305° (NW) 04:49:44 435.225
nSIGHT-1 22 Sep 05:04:54 05:04:57 10° 228° (SW) 05:05:00 .
STARS 22 Sep 05:06:02 05:10:12 47° 70° (ENE) 05:14:24 437.465
DOVE 4 22 Sep 05:27:20 05:30:53 26° 95° (E) 05:34:32 437.250
AO-85 22 Sep 05:30:13 05:34:37 86° 58° (ENE) 05:39:21 145.980
AO-7 22 Sep 05:37:30 05:45:32 56° 298° (WNW) 05:53:31 .
CUTE-I 22 Sep 06:09:35 06:13:32 21° 91° (E) 06:17:28 437.470
BEESAT 3 22 Sep 06:11:33 06:13:46 15° 249° (WSW) 06:15:59 437.485
BEESAT 2 22 Sep 06:13:33 06:17:21 39° 241° (WSW) 06:21:05 435.950
ITAMSAT 1 22 Sep 06:13:44 06:17:16 19° 302° (WNW) 06:20:47 435.822/435.867
KKS-1 22 Sep 06:14:57 06:17:46 17° 269° (W) 06:20:37 437.445
XW-2D 22 Sep 06:18:14 06:21:27 25° 95° (E) 06:24:38 145.860 - 145.880
RS-15 22 Sep 06:27:23 06:39:42 86° 123° (ESE) 06:52:03 29.354- 29.394
XW-2B 22 Sep 06:30:20 06:33:50 33° 97° (E) 06:37:16 145.730 - 145.750
XW-2F 22 Sep 06:31:44 06:35:12 32° 96° (E) 06:38:37 145.980 - 146.000
STARS 22 Sep 06:43:42 06:46:47 19° 268° (W) 06:49:54 437.465
HO-68 22 Sep 06:48:48 06:54:00 21° 89° (E) 06:59:11 435.675
CUTE 1.7 + AOD 2 22 Sep 06:50:18 06:52:14 13° 88° (E) 06:54:08 437.475
STRAND 1 22 Sep 06:50:56 06:55:50 50° 69° (ENE) 07:00:47 437.568
XW-2C 22 Sep 06:51:24 06:55:12 59° 101° (E) 06:58:56 145.795 - 145.815
NUDT-PHONESAT 22 Sep 07:00:30 07:04:11 54° 100° (E) 07:07:49 437.300
LilacSat-2 22 Sep 07:01:38 07:05:31 84° 103° (ESE) 07:09:20 437.200
CUBEBUG 2 22 Sep 07:02:32 07:04:07 11° 87° (E) 07:05:42 437.445
DOVE 4 22 Sep 07:04:53 07:08:37 32° 292° (WNW) 07:12:27 437.250
AO-85 22 Sep 07:12:17 07:14:30 13° 249° (WSW) 07:16:48 145.980
KAITUO 1B 22 Sep 07:26:18 07:30:04 71° 285° (WNW) 07:33:46 145.475/437.950
AO-7 22 Sep 07:31:56 07:36:33 16° 321° (NW) 07:41:10 .
XW-2A 22 Sep 07:41:19 07:43:33 16° 92° (E) 07:45:46 145.665 - 145.685
CUTE-I 22 Sep 07:48:43 07:53:59 60° 289° (WNW) 07:59:13 437.470
XW-2D 22 Sep 07:52:19 07:55:35 27° 292° (WNW) 07:58:50 145.860 - 145.880
SEEDS 22 Sep 07:59:30 08:03:30 42° 98° (E) 08:07:27 437.485
AO-73 22 Sep 08:01:54 08:04:08 13° 88° (E) 08:06:23 145.935
ZACube-1 22 Sep 08:03:19 08:06:05 16° 89° (E) 08:08:50 437.345
XW-2B 22 Sep 08:04:53 08:07:50 21° 294° (WNW) 08:10:45 145.730 - 145.750
XW-2F 22 Sep 08:06:12 08:09:09 21° 294° (WNW) 08:12:03 145.980 - 146.000
FO-29 22 Sep 08:08:27 08:13:26 34° 66° (ENE) 08:18:08 435.910
CUTE 1.7 + AOD 2 22 Sep 08:24:18 08:28:32 67° 285° (WNW) 08:32:42 437.475
XW-2C 22 Sep 08:27:01 08:28:54 13° 298° (WNW) 08:30:46 145.795 - 145.815
AAUSAT CUBESAT 2 22 Sep 08:27:08 08:31:00 37° 97° (E) 08:34:49 437.432
STRAND 1 22 Sep 08:31:17 08:35:18 23° 268° (W) 08:39:20 437.568
UNISAT 6 22 Sep 08:32:45 08:35:35 17° 61° (ENE) 08:38:29 437.425
HO-68 22 Sep 08:35:19 08:42:33 83° 288° (WNW) 08:49:45 435.675
NUDT-PHONESAT 22 Sep 08:35:40 08:37:37 14° 298° (WNW) 08:39:34 437.300
CUBEBUG 2 22 Sep 08:36:38 08:41:21 89° 272° (W) 08:46:05 437.445
LilacSat-2 22 Sep 08:38:49 08:39:08 10° 301° (WNW) 08:39:27 437.200
RS-15 22 Sep 08:42:06 08:53:43 43° 332° (NNW) 09:05:11 29.354- 29.394
UWE-3 22 Sep 08:46:54 08:51:35 72° 102° (ESE) 08:56:14 435.000/436.395/437.385
TIGRISAT 22 Sep 08:56:00 08:59:33 25° 65° (ENE) 09:03:13 435.000
XW-2A 22 Sep 09:13:14 09:16:24 34° 289° (WNW) 09:19:31 145.665 - 145.685
CUTE-I 22 Sep 09:31:48 09:32:59 11° 309° (NW) 09:34:09 437.470
SEEDS 22 Sep 09:35:47 09:38:55 21° 296° (WNW) 09:42:01 437.485
AO-73 22 Sep 09:36:18 09:40:53 74° 286° (WNW) 09:45:26 145.935
Oscar 11 22 Sep 09:37:16 09:41:39 83° 104° (ESE) 09:45:59 .
ZACube-1 22 Sep 09:38:13 09:42:47 64° 287° (WNW) 09:47:18 437.345
FO-29 22 Sep 09:53:19 09:58:33 36° 263° (W) 10:03:26 435.910
PRISM 22 Sep 09:57:28 10:01:31 64° 73° (ENE) 10:05:34 437.425
Max Valier Satellite 22 Sep 09:58:40 10:01:47 24° 94° (E) 10:04:51 145.860
AAUSAT CUBESAT 2 22 Sep 10:03:03 10:06:14 22° 295° (WNW) 10:09:24 437.432
UNISAT 6 22 Sep 10:07:34 10:11:50 59° 259° (W) 10:16:15 437.425
DELFI C3 22 Sep 10:09:50 10:13:35 43° 98° (E) 10:17:19 145.870
CUBEBUG 2 22 Sep 10:15:08 10:17:15 13° 302° (WNW) 10:19:23 437.445
HO-68 22 Sep 10:24:19 10:29:17 21° 309° (NW) 10:34:15 435.675
UWE-3 22 Sep 10:24:39 10:27:29 16° 299° (WNW) 10:30:18 435.000/436.395/437.385
TIGRISAT 22 Sep 10:32:06 10:36:05 36° 263° (W) 10:40:12 435.000
NANOSAT C BR1 22 Sep 10:35:09 10:37:31 15° 60° (ENE) 10:39:54 145.865
O/OREOS (USA 219) 22 Sep 10:47:47 10:50:12 14° 44° (NE) 10:52:36 437.305
RS-15 22 Sep 10:59:31 11:10:18 33° 5° (N) 11:20:44 29.354- 29.394
EO-88 22 Sep 11:02:21 11:06:01 79° 286° (WNW) 11:09:40 145.990 - 145.960
DUCHIFAT 1 22 Sep 11:03:14 11:06:36 24° 65° (ENE) 11:10:00 145.980
AIST 2D 22 Sep 11:04:28 11:07:59 70° 75° (ENE) 11:11:33 435.315
YUBILEINY 22 Sep 11:09:47 11:15:53 22° 77° (ENE) 11:21:58 435.215
POLYITAN 1 22 Sep 11:14:07 11:18:01 38° 69° (ENE) 11:21:57 437.675
Oscar 11 22 Sep 11:15:16 11:17:09 13° 301° (WNW) 11:19:00 .
AO-73 22 Sep 11:15:23 11:16:16 11° 304° (NW) 11:17:11 145.935
EO-79 22 Sep 11:18:45 11:22:43 42° 70° (ENE) 11:26:43 145.935-145.965
QB50P2 22 Sep 11:31:36 11:35:46 64° 73° (ENE) 11:39:59 145.880/145.840
ESTCUBE 1 22 Sep 11:32:09 11:35:43 23° 93° (E) 11:39:16 437.505/2401.250
Max Valier Satellite 22 Sep 11:32:21 11:35:35 27° 292° (WNW) 11:38:47 145.860
PRISM 22 Sep 11:35:21 11:37:12 13° 270° (W) 11:39:03 437.425
Oscar 19 22 Sep 11:37:26 11:39:30 12° 54° (NE) 11:41:35 437.125/150
